This demonstration page uses our WeatherBlox Daily Observations layout. Learn more.

Left ArrowRight Arrow

Hourly Observations for March 7, 2020

Temp ( °F °C ) Dew Point ( °F °C ) Humidity (%) Winds ( mph kmh ) Pressure ( in mb ) Visibility ( mi km ) Precip ( " mm )
12:53 am 00:53 Cloudy 54 12.2 44 6.7 69 69 S 14 22 29.78 1009 10 16 0.00 0.00
1:53 am 01:53 Cloudy 53 11.7 44 6.7 72 72 SSE 18 30 29.79 1009 10 16 0.00 0.00
2:53 am 02:53 Cloudy 53 11.7 42 5.6 66 66 S 22 35 29.78 1008 10 16 0.00 0.00
3:53 am 03:53 Cloudy 52 11.1 43 6.1 72 72 S 13 20 29.79 1009 10 16 0.00 0.00
4:53 am 04:53 Cloudy 51 10.6 43 6.1 74 74 S 18 30 29.80 1009 10 16 0.00 0.00
5:23 am 05:23 Cloudy with Rain 49 9.4 45 7.2 86 86 SW 13 20 29.83 1010 6 10 0.01 0.25
5:33 am 05:33 Cloudy with Rain 49 9.4 45 7.2 86 86 SW 10 17 29.83 1010 4 6 0.03 0.76
5:53 am 05:53 Cloudy with Rain 48 8.9 45 7.2 89 89 SW 7 11 29.82 1010 4 6 0.13 3.30
6:05 am 06:05 Cloudy with Rain 48 8.9 44 6.7 86 86 SW 8 13 29.84 1010 6 10 0.02 0.51
6:53 am 06:53 Cloudy with Light Rain 46 7.8 41 5 83 83 Calm 29.84 1011 6 10 0.12 3.05
7:53 am 07:53 Cloudy with Light Rain 46 7.8 42 5.6 86 86 SE 5 7 29.87 1011 5 8 0.05 1.27
8:53 am 08:53 Cloudy with Light Rain 46 7.8 42 5.6 86 86 SE 8 13 29.88 1012 10 16 0.05 1.27
9:53 am 09:53 Cloudy 48 8.9 42 5.6 80 80 SSW 3 6 29.90 1013 10 16 0.00 0.00
10:24 am 10:24 Cloudy 49 9.4 43 6.1 80 80 Calm 29.92 1013 10 16 0.00 0.00
10:53 am 10:53 Cloudy with Light Rain 49 9.4 43 6.1 80 80 Calm 29.90 1013 10 16 0.00 0.00
11:53 am 11:53 Cloudy 51 10.6 44 6.7 77 77 E 6 9 29.89 1012 10 16 0.00 0.00
12:23 pm 12:23 Cloudy 50 10 44 6.7 80 80 ENE 8 13 29.90 1012 10 16 0.00 0.00
12:53 pm 12:53 Cloudy 50 10 43 6.1 77 77 ENE 9 15 29.88 1012 10 16 0.00 0.00
1:26 pm 13:26 Cloudy 52 11.1 43 6.1 72 72 ESE 9 15 29.89 1012 10 16 0.00 0.00
1:53 pm 13:53 Cloudy 51 10.6 43 6.1 74 74 ESE 8 13 29.86 1011 10 16 0.00 0.00
2:02 pm 14:02 Cloudy with Light Rain 51 10.6 44 6.7 77 77 ESE 7 11 29.88 1012 10 16 0.00 0.00
2:53 pm 14:53 Cloudy with Light Rain 51 10.6 46 7.8 83 83 SE 9 15 29.86 1011 10 16 0.04 1.02
3:00 pm 15:00 Cloudy with Light Rain 51 10.6 45 7.2 80 80 SE 7 11 29.88 1012 10 16 0.00 0.00
3:53 pm 15:53 Mostly Cloudy 51 10.6 43 6.1 74 74 NE 3 6 29.89 1012 10 16 0.01 0.25
4:53 pm 16:53 Mostly Sunny 51 10.6 43 6.1 74 74 N 3 6 29.86 1011 10 16 0.00 0.00
5:53 pm 17:53 Cloudy 51 10.6 43 6.1 74 74 E 6 9 29.88 1012 10 16 0.00 0.00
6:53 pm 18:53 Cloudy 50 10 42 5.6 74 74 N 6 9 29.90 1012 10 16 0.00 0.00
7:53 pm 19:53 Mostly Cloudy 49 9.4 44 6.7 83 83 ENE 3 6 29.91 1013 10 16 0.00 0.00
8:53 pm 20:53 Cloudy 47 8.3 43 6.1 86 86 SE 9 15 29.93 1014 10 16 0.00 0.00
9:53 pm 21:53 Cloudy with Light Rain 47 8.3 43 6.1 86 86 Calm 29.95 1014 10 16 0.00 0.00
10:53 pm 22:53 Cloudy 47 8.3 44 6.7 90 90 W 3 6 29.95 1014 10 16 0.01 0.25
11:53 pm 23:53 Cloudy 47 8.3 44 6.7 90 90 Calm 29.96 1014 10 16 0.00 0.00

Powered by AerisWeather